ATLAS D DEB, 2337

Orbit data source: Space-Track

ATLAS D DEB, 2337 is space debris in LEO originally from a launch on Thu, 14 Jul 1966 UTC launched from the Air Force Western Test Range (AFWTR). Debris objects in space refer to the collection of defunct objects orbiting the Earth. Examples of debris include non-operational satellites, rocket bodies, and fragments generated from explosions, collisions, or faulty payload assembly.

Loading next visibility...
Identifier
2337, 1966-063E
Orbit
LEO
Country
Flag of USUS
Related business
Manufacturer
Unknown
Mission
Spacecraft
Bus & Motor
Unknown
Mass
9 kg wet, 9 kg dry
Launch date (UTC)
1966-07-14 (59 years ago)
Launch vehicle
Unknown
Launch site
Air Force Western Test Range (AFWTR)
Object type
Payload
Rocket body
Debris
Shape & HBR
Unknown
Radar Cross Section
Medium (>0.1 m² and <1 m²)

Expand to show TLE details & history
Last TLE update: 14 hours ago

TLE from 14 hours ago
0 ATLAS D DEB
1 02337U 66063E   25303.12153715  .00000394  00000-0  15739-3 0  9998
2 02337 144.2300 145.8085 0005861 238.6572 202.9582 13.72239446970459
Epoch: 2025-10-30T02:55Z
TLE epoch observation values (Epoch: 2025-10-30T02:55:00.809Z)
Latitude
35.46715°
Longitude
-16.2925°
Altitude
996.421 km
Speed
7.357 km/s
True Right ascension
04h 24m 34s
True Declination
35° 18' 36"
Sunlit
Object was in full shadow at epoch
Visualization orbit readout
Latitude
Unknown
Longitude
Unknown
Altitude
Unknown
Speed
Unknown
Apparent Right ascension
Unknown
Apparent Declination
Unknown
Sunlit
N/A
Visualization observer readout
Local Sidereal Time
12:02:40
Azimuth
Unknown
Elevation
Unknown
Doppler factor
Unknown
Orbital elements
Apogee altitude
998.782 km
Perigee altitude
990.14 km
Semi-major axis
7,372.598 km
Eccentricity
0.00059
Inclination
144.23°
RAAN
145.8085°
Arg. of periapsis
238.6572°
True anomaly
202.93202°
Mean anomaly
202.9582°
Eccentric anomaly
202.94511°
Mean motion
3.42856 °/min
Orbital period
105 mins
BSTAR
0.00015739
Loading maneuver chart data...
Computing Atmospheric mass density...
Loading historical data...
Loading historical data...
Loading historical data...
Loading historical data...
Loading historical data...
Loading historical data...
Loading historical data...

Documentation

Showing up to 5 results
|